Weather History for LPFR - May, 2013

Change the Weather History Date:

Tuesday, May 7, 2013

  Actual Average Record
Temperature  
Mean Temperature 72 °F -  
Max Temperature 80 °F 73 °F 82 °F (2014)
Min Temperature 64 °F 58 °F 46 °F (2001)
Cooling Degree Days 7    
Growing Degree Days 22 (Base 50)    
Moisture  
Dew Point 51 °F    
Average Humidity 49    
Maximum Humidity 73    
Minimum Humidity 25    
Precipitation  
Precipitation 0.00 in 0.02 in - ()
Sea Level Pressure  
Sea Level Pressure 30.06 in    
Wind  
Wind Speed 6 mph ()    
Max Wind Speed 15 mph    
Max Gust Speed -    
Visibility 9.8 miles    
Events      
Averages and records for this station are not official NWS values.
T = Trace of Precipitation, MM = Missing Value Source: Averaged Metar Reports

Daily Weather History Graph

Daily Weather History Graph

Search for Another Location

Airport or City:

Trip Planner

Search our weather history database for the weather conditions in past years. The results will help you decide how hot, cold, wet, or windy it might be!

Date:

Astronomy

May. 07, 2013 Rise Set
Actual Time 6:31 AM WEST 8:26 PM WEST
Civil Twilight 6:02 AM WEST 8:54 PM WEST
Nautical Twilight 5:28 AM WEST 9:29 PM WEST
Astronomical Twilight 4:51 AM WEST 10:06 PM WEST
Moon 4:54 AM WEST 6:15 PM WEST
Length of Visible Light 14h 51m
Length of Day
13h 55m
Waning Crescent, 6% of the Moon is Illuminated
May 7
Waning Crescent
May 10
New
May 18
First Quarter
May 25
Full
May 31
Last Quarter

Hourly Weather History & Observations

Time (WEST) Temp. Dew Point Humidity Pressure Visibility Wind Dir Wind Speed Gust Speed Precip Events Conditions
12:00 AM 69.8 °F 44.6 °F 40% 30.12 in - NE 4.6 mph - N/A   Clear
12:30 AM 71.6 °F 42.8 °F 35% 30.09 in - East 4.6 mph - N/A   Clear
1:00 AM 69 °F 42 °F 27% 30.14 in 9 mi NNE 4.5 mph - -   Mostly Cloudy
1:00 AM 69.8 °F 42.8 °F 38% 30.09 in - Variable 2.3 mph - N/A   Clear
1:30 AM 68.0 °F 53.6 °F 60% 30.09 in - WNW 6.9 mph - N/A   Clear
2:00 AM 66.2 °F 48.2 °F 52% 30.09 in - West 5.8 mph - N/A   Clear
2:30 AM 66.2 °F 48.2 °F 52% 30.09 in - West 8.1 mph - N/A   Clear
3:00 AM 66.2 °F 42.8 °F 43% 30.09 in - NNW 9.2 mph - N/A   Clear
3:30 AM 68.0 °F 42.8 °F 40% 30.06 in - NNE 6.9 mph - N/A   Clear
4:00 AM 68 °F 40 °F 25% 30.09 in 9 mi North 6.7 mph - -   Partly Cloudy
4:00 AM 68.0 °F 42.8 °F 40% 30.06 in - NNE 8.1 mph - N/A   Clear
4:30 AM 68.0 °F 41.0 °F 37% 30.04 in - NNE 5.8 mph - N/A   Clear
5:00 AM 68.0 °F 41.0 °F 37% 30.04 in - NNE 4.6 mph - N/A   Clear
5:30 AM 69.8 °F 41.0 °F 35% 30.04 in - NNE 9.2 mph - N/A   Clear
6:00 AM 66.2 °F 46.4 °F 49% 30.04 in - West 4.6 mph - N/A   Clear
6:30 AM 64.4 °F 53.6 °F 68% 30.06 in - SW 3.5 mph - N/A   Clear
7:00 AM 65 °F 53 °F 57% 30.11 in 9 mi 2.2 mph - -   Partly Cloudy
7:00 AM 64.4 °F 55.4 °F 73% 30.06 in - South 4.6 mph - N/A   Clear
7:30 AM 66.2 °F 55.4 °F 68% 30.06 in - South 4.6 mph - N/A   Clear
8:00 AM 66.2 °F 57.2 °F 73% 30.06 in - NE 6.9 mph - N/A   Clear
8:30 AM 69.8 °F 42.8 °F 38% 30.06 in - NE 5.8 mph - N/A   Clear
9:00 AM 71.6 °F 46.4 °F 41% 30.06 in - ENE 4.6 mph - N/A   Clear
9:30 AM 75.2 °F 46.4 °F 36% 30.06 in - Variable 2.3 mph - N/A   Clear
10:00 AM 76 °F 52 °F 32% 30.09 in 12 mi SE 4.5 mph - -   Partly Cloudy
10:00 AM 75.2 °F 50.0 °F 41% 30.06 in - SE 4.6 mph - N/A   Clear
10:30 AM 77.0 °F 51.8 °F 41% 30.06 in - SE 6.9 mph - N/A   Clear
11:00 AM 78.8 °F 50.0 °F 36% 30.06 in - ESE 11.5 mph - N/A   Clear
11:30 AM 78.8 °F 48.2 °F 34% 30.09 in - ESE 12.7 mph - N/A   Clear
12:00 PM 77.0 °F 50.0 °F 39% 30.09 in - ESE 15.0 mph - N/A   Clear
12:30 PM 75.2 °F 50.0 °F 41% 30.09 in - ESE 12.7 mph - N/A   Clear
1:00 PM 78 °F 49 °F 26% 30.12 in 12 mi ESE 11.2 mph - -   Partly Cloudy
1:00 PM 75.2 °F 50.0 °F 41% 30.09 in - ESE 11.5 mph - N/A   Clear
1:30 PM 77.0 °F 53.6 °F 44% 30.09 in - ESE 9.2 mph - N/A   Clear
2:00 PM 75.2 °F 51.8 °F 44% 30.06 in - ESE 9.2 mph - N/A   Clear
2:30 PM 77.0 °F 53.6 °F 44% 30.06 in - ESE 9.2 mph - N/A   Clear
3:00 PM 73.4 °F 57.2 °F 57% 30.06 in - SE 8.1 mph - N/A   Clear
3:30 PM 73.4 °F 57.2 °F 57% 30.06 in - South 6.9 mph - N/A   Clear
4:00 PM 74 °F 55 °F 40% 30.07 in 9 mi South 6.7 mph - -   Partly Cloudy
4:00 PM 73.4 °F 57.2 °F 57% 30.04 in - South 6.9 mph - N/A   Clear
4:30 PM 73.4 °F 59.0 °F 61% 30.04 in - SW 5.8 mph - N/A   Clear
5:00 PM 71.6 °F 59.0 °F 64% 30.04 in - SW 8.1 mph - N/A   Clear
5:30 PM 71.6 °F 59.0 °F 64% 30.04 in - WSW 8.1 mph - N/A   Clear
6:00 PM 71.6 °F 60.8 °F 69% 30.04 in - WSW 8.1 mph - N/A   Clear
6:30 PM 71.6 °F 59.0 °F 64% 30.04 in - West 8.1 mph - N/A   Clear
7:00 PM 71 °F 54 °F 46% 30.04 in 9 mi West 6.7 mph - -   Clear
7:00 PM 69.8 °F 57.2 °F 64% 30.01 in - West 8.1 mph - N/A   Clear
7:30 PM 69.8 °F 57.2 °F 64% 30.01 in - West 9.2 mph - N/A   Clear
8:00 PM 68.0 °F 57.2 °F 68% 30.01 in - West 8.1 mph - N/A   Clear
8:30 PM 68.0 °F 53.6 °F 60% 30.01 in - WNW 8.1 mph - N/A   Clear
9:00 PM 68.0 °F 53.6 °F 60% 30.01 in - WNW 5.8 mph - N/A   Clear
9:30 PM 68.0 °F 53.6 °F 60% 30.04 in - WNW 6.9 mph - N/A   Clear
10:00 PM 67 °F 52 °F 49% 30.06 in 9 mi WNW 6.7 mph - -   Partly Cloudy
10:00 PM 68.0 °F 53.6 °F 60% 30.04 in - WNW 6.9 mph - N/A   Clear
10:30 PM 68.0 °F 53.6 °F 60% 30.04 in - WNW 6.9 mph - N/A   Clear
11:00 PM 68.0 °F 51.8 °F 56% 30.04 in - NW 6.9 mph - N/A   Clear
11:30 PM 69.8 °F 48.2 °F 46% 30.04 in - NNW 6.9 mph - N/A   Clear